This demonstration page uses our WeatherBlox Daily Observations layout. Learn more.

Left ArrowRight Arrow

39.92423, -83.80882

Hourly Observations for May 16, 2022

Temp ( °F °C ) Dew Point ( °F °C ) Humidity (%) Winds ( mph kmh ) Pressure ( in mb ) Visibility ( mi km ) Precip ( " mm )
12:56 am 00:56 Clear 67 19.4 54 12.2 63 63 NNW 9 15 29.78 1008 10 16 0.00 0.00
1:44 am 01:44 Mostly Cloudy with Nearby Thunderstorms 64 18 55 13 73 73 NW 20 31 29.81 1009 10 16 0.00 0.00
1:56 am 01:56 Mostly Cloudy 63 17.2 57 13.9 81 81 NW 21 33 29.83 1010 10 16 0.00 0.00
2:56 am 02:56 Cloudy with Light Rain 59 15 N/A N/A N 20 31 29.80 1009 10 16 0.00 0.00
3:05 am 03:05 Cloudy with Nearby Thunderstorms 59 15 N/A N/A NW 14 22 29.84 1011 10 16 0.00 0.00
3:20 am 03:20 Cloudy with Heavy Rain N/A N/A N/A NW 13 20 N/A 8 13 0.00 0.00
3:32 am 03:32 Cloudy with Rain 57 14 N/A N/A NE 8 13 29.83 1010 9 14 0.00 0.00
3:56 am 03:56 Cloudy with Rain N/A N/A N/A Calm N/A 9 14 0.00 0.00
4:56 am 04:56 Mostly Clear N/A N/A N/A NE 5 7 N/A 10 16 0.00 0.00
5:56 am 05:56 Mostly Cloudy N/A N/A N/A WNW 5 7 N/A 10 16 0.00 0.00
6:08 am 06:08 Cloudy N/A N/A N/A WNW 10 17 N/A 10 16 0.00 0.00
6:20 am 06:20 Cloudy N/A N/A N/A NW 8 13 N/A 10 16 0.00 0.00
6:56 am 06:56 Cloudy N/A N/A N/A undefined N/A N/A 10 16 0.00 0.00
7:11 am 07:11 Cloudy 55 13 N/A N/A NNW 8 13 29.81 1009 10 16 0.00 0.00
7:56 am 07:56 Cloudy 57 14 N/A N/A NW 9 15 29.83 1010 10 16 0.00 0.00
8:53 am 08:53 Cloudy 57 14 N/A N/A WNW 10 17 29.86 1011 10 16 0.00 0.00
8:56 am 08:56 Cloudy 57 14 N/A N/A NW 12 19 29.85 1011 10 16 0.00 0.00
9:53 am 09:53 Mostly Cloudy 61 16 55 13 83 83 NW 14 22 29.86 1011 10 16 0.00 0.00
9:56 am 09:56 Mostly Cloudy 61 16.1 55 12.8 81 81 NNW 15 24 29.86 1011 10 16 0.00 0.00
10:47 am 10:47 Partly Cloudy 63 17 55 13 77 77 NW 12 19 29.86 1011 10 16 0.00 0.00
10:56 am 10:56 Mostly Sunny 64 17.8 54 12.2 70 70 NNW 9 15 29.87 1012 10 16 0.00 0.00
11:56 am 11:56 Sunny 67 19.4 55 12.8 66 66 W 9 15 29.88 1012 10 16 0.00 0.00
12:56 pm 12:56 Sunny 70 21.1 53 11.7 55 55 WNW 13 20 29.87 1011 10 16 0.00 0.00
1:56 pm 13:56 Mostly Sunny 72 22.2 51 10.6 48 48 WNW 14 22 29.85 1011 10 16 0.00 0.00
2:56 pm 14:56 Cloudy with Light Rain 70 21.1 46 7.8 42 42 WNW 16 26 29.85 1011 10 16 0.00 0.00
3:56 pm 15:56 Partly Cloudy 75 23.9 47 8.3 37 37 W 25 41 29.81 1009 10 16 0.00 0.00
4:56 pm 16:56 Mostly Sunny 74 23.3 44 6.7 34 34 WNW 17 28 29.80 1009 10 16 0.00 0.00
5:56 pm 17:56 Mostly Cloudy 74 23.3 44 6.7 34 34 WNW 14 22 29.81 1009 10 16 0.00 0.00
6:56 pm 18:56 Partly Cloudy 71 21.7 44 6.7 38 38 W 16 26 29.82 1010 10 16 0.00 0.00
7:56 pm 19:56 Mostly Cloudy 70 21.1 46 7.8 42 42 WNW 10 17 29.85 1011 10 16 0.00 0.00
8:56 pm 20:56 Partly Cloudy 65 18.3 48 8.9 54 54 W 5 7 29.87 1012 10 16 0.00 0.00
9:56 pm 21:56 Clear 62 16.7 49 9.4 62 62 WSW 5 7 29.89 1012 10 16 0.00 0.00
10:56 pm 22:56 Clear 61 16.1 48 8.9 63 63 WSW 5 7 29.90 1013 10 16 0.00 0.00
11:56 pm 23:56 Mostly Cloudy 58 14.4 50 10 75 75 SW 5 7 29.90 1013 10 16 0.00 0.00

Powered by AerisWeather